Volver al catálogo

SL-8 R/B

ActivoPO
NORAD 19922·ROCKET BODY·🇷🇺 Russia

Lanzado Apr 4, 1989 desde Plesetsk Cosmodrome

Loading…

Próximos Pases (próximas 24 horas)

TLE

ActualizadoSource: Space-Track

Época: Sep 14, 2026, 12:32 UTC

1 19922U 89028B   26257.52250231  .00000002  00000-0 -13482-4 0  9997
2 19922  82.9538  81.6417 0037117 145.1584 215.2014 13.77506748881734

Sigue SL-8 R/B en tiempo real con AllMySat

Download on the App Store